Window Rock, AZ

9:07 AM MDT on March 24, 2017 (GMT -0600)
Window Rock

Weather History for KRQE - December, 2013

Change the Weather History Date:

Wednesday, December 25, 2013

  Actual Average Record
Temperature  
Mean Temperature 29 °F -  
Max Temperature 46 °F 41 °F 61 °F (1989)
Min Temperature 12 °F 12 °F -12 °F (1990)
Degree Days  
Heating Degree Days 36    
Moisture  
Dew Point 10 °F    
Average Humidity 54    
Maximum Humidity 81    
Minimum Humidity 20    
Precipitation  
Precipitation 0.00 in - - ()
Sea Level Pressure  
Sea Level Pressure 30.37 in    
Wind  
Wind Speed 3 mph (ESE)    
Max Wind Speed 9 mph    
Max Gust Speed 18 mph    
Visibility 10 miles    
Events      
Averages and records for this station are not official NWS values.
T = Trace of Precipitation, MM = Missing Value Source: NWS Daily Summary

Daily Weather History Graph

Daily Weather History Graph

Search for Another Location

Airport or City:

Trip Planner

Search our weather history database for the weather conditions in past years. The results will help you decide how hot, cold, wet, or windy it might be!

Date:

Astronomy

Dec. 25, 2013 Rise Set
Actual Time 7:24 AM MST 5:09 PM MST
Civil Twilight 6:55 AM MST 5:37 PM MST
Nautical Twilight 6:23 AM MST 6:09 PM MST
Astronomical Twilight 5:52 AM MST 6:40 PM MST
Moon 12:06 AM MST (12/25) 12:04 PM MST (12/25)
Length of Visible Light 10h 42m
Length of Day
9h 45m
Waning Gibbous, 48% of the Moon is Illuminated
Dec 25
Waning Gibbous
Jan 1
New
Jan 7
First Quarter
Jan 15
Full
Jan 23
Last Quarter

Hourly Weather History & Observations

Time (MST) Temp. Windchill Dew Point Humidity Pressure Visibility Wind Dir Wind Speed Gust Speed Precip Events Conditions
12:53 AM 19.0 °F - 14.0 °F 81% 30.29 in 10.0 mi Calm Calm - N/A   Clear
1:53 AM 25.0 °F 18.1 °F 15.1 °F 66% 30.25 in 10.0 mi NNE 5.8 mph - N/A   Clear
2:53 AM 19.9 °F 14.9 °F 12.9 °F 74% 30.29 in 10.0 mi North 3.5 mph - N/A   Clear
3:53 AM 21.9 °F - 12.9 °F 68% 30.29 in 10.0 mi Calm Calm - N/A   Clear
4:53 AM 24.1 °F 19.7 °F 10.9 °F 57% 30.30 in 10.0 mi ENE 3.5 mph - N/A   Clear
5:53 AM 18.0 °F - 9.0 °F 68% 30.37 in 10.0 mi Calm Calm - N/A   Clear
6:53 AM 12.9 °F - 7.0 °F 77% 30.42 in 10.0 mi Calm Calm - N/A   Clear
7:53 AM 14.0 °F 8.2 °F 8.1 °F 77% 30.45 in 10.0 mi South 3.5 mph - N/A   Clear
8:53 AM 21.0 °F 16.2 °F 12.9 °F 71% 30.44 in 10.0 mi South 3.5 mph - N/A   Clear
9:53 AM 30.0 °F 26.5 °F 14.0 °F 51% 30.40 in 10.0 mi South 3.5 mph - N/A   Clear
10:53 AM 37.0 °F 34.5 °F 8.1 °F 30% 30.40 in 10.0 mi Variable 3.5 mph - N/A   Clear
11:53 AM 42.1 °F 37.1 °F 10.0 °F 27% 30.36 in 10.0 mi South 8.1 mph - N/A   Clear
12:53 PM 43.0 °F 38.8 °F 9.0 °F 25% 30.34 in 10.0 mi South 6.9 mph - N/A   Clear
1:53 PM 45.0 °F 43.5 °F 6.1 °F 20% 30.28 in 10.0 mi Variable 3.5 mph - N/A   Clear
2:53 PM 46.9 °F - 7.0 °F 20% 30.28 in 10.0 mi Variable 4.6 mph - N/A   Clear
3:53 PM 42.1 °F 36.6 °F 9.0 °F 26% 30.31 in 10.0 mi East 9.2 mph 18.4 mph N/A   Clear
4:53 PM 39.0 °F 35.7 °F 9.0 °F 29% 30.33 in 10.0 mi ENE 4.6 mph - N/A   Clear
5:53 PM 33.1 °F 26.1 °F 10.9 °F 40% 30.39 in 10.0 mi East 8.1 mph - N/A   Clear
6:53 PM 30.0 °F 26.5 °F 10.9 °F 45% 30.44 in 10.0 mi ESE 3.5 mph - N/A   Clear
7:53 PM 24.1 °F - 12.0 °F 60% 30.48 in 10.0 mi Calm Calm - N/A   Clear
8:53 PM 21.0 °F - 12.0 °F 68% 30.47 in 10.0 mi Calm Calm - N/A   Clear
9:53 PM 18.0 °F - 10.0 °F 71% 30.45 in 10.0 mi Calm Calm - N/A   Clear
10:53 PM 18.0 °F - 10.9 °F 74% 30.43 in 10.0 mi Calm Calm - N/A   Clear
11:53 PM 14.0 °F - 9.0 °F 80% 30.43 in 10.0 mi Calm Calm - N/A   Clear